Regional Weather Roundup
Issued by NWS

Home | Current Version | Previous Version | Graphics & Text | Print | Product List | Glossary On
Versions: 1 2 3 4 5 6 7 8 9 10 11 12 13 14 15 16 17 18 19 20 21 22 23 24 25 26 27 28 29 30 31 32 33 34 35 36 37 38 39 40 41 42
000
ASUS43 KDMX 020707
RWRIA

WEATHER ROUNDUP FOR IOWA
NATIONAL WEATHER SERVICE DES MOINES IA
200 AM CDT THU OCT 02 2014

NOTE: "FAIR" INDICATES FEW OR NO CLOUDS BELOW 12,000 FEET WITH NO
SIGNIFICANT WEATHER AND/OR OBSTRUCTIONS TO VISIBILITY.

* - THESE STATIONS ARE NOT NWS STATIONS...THUS NOT UNDER NWS
QUALITY CONTROL.  THEY ALSO DO NOT REPORT WEATHER SUCH
AS PRECIPITATION OR FOG.

IAZ001>003-012>014-020>022-031>034-043>046-020800-
   NORTHWEST IOWA

CITY           SKY/WX    TMP DP  RH WIND       PRES   REMARKS
CARROLL *      FOG       57  57 100 N3        29.79F VSB 1/4
CHEROKEE *     CLOUDY    59  57  94 CALM      29.81R
DENISON *      CLOUDY    61  61 100 NE7       29.78S FOG
LE MARS *      MOCLDY    57  55  94 CALM      29.81S
ORANGE CITY *  CLEAR     61  50  67 N10       29.81F
SHELDON *      CLEAR     55  54  94 N8        29.81S
SIOUX CITY     MOCLDY    63  56  78 NE5       29.78F
SPENCER        FOG       57  56  96 E3        29.81S VSB 1
STORM LAKE *   CLOUDY    61  59  94 SE5       29.81F FOG
$$

IAZ055>058-069>071-079>083-090>094-020800-
   SOUTHWEST IOWA

CITY           SKY/WX    TMP DP  RH WIND       PRES   REMARKS
ATLANTIC *     FOG       64  64 100 CALM      29.77F VSB 0
AUDUBON *      HAZE      59  54  82 CALM      29.80S VSB 1/4
CLARINDA *     CLOUDY    66  66 100 NE3       29.78S FOG
COUNCIL BLFS * MOCLDY    63  63 100 E7        29.76S FOG
CRESTON *      FOG       63  63 100 CALM      29.79F VSB 1/4
HARLAN  *      FOG       57  57 100 CALM      29.81S VSB 0
LAMONI         CLOUDY    65  64  97 VRB5      29.77F FOG
RED OAK *      FOG       64  64 100 NE3       29.77F VSB 1/4
SHENANDOAH *   CLOUDY    66  66 100 E5        29.76F FOG
$$

IAZ047>049-059>061-072>074-084-020800-
   CENTRAL IOWA

CITY           SKY/WX    TMP DP  RH WIND       PRES   REMARKS
AMES           FOG       60  60 100 CALM      29.81R VSB 1/4
ANKENY *       FOG       63  63 100 CALM      29.81R VSB<1/4
CHARITON *     FOG       63  63 100 CALM      29.79S VSB 1/4
DES MOINES     FOG       63  62  97 E3        29.80R VSB 1/8
GRINNELL*      CLOUDY    64  63  94 E3        29.82S FOG
KNOXVILLE *    CLOUDY    64  63  94 NE5       29.79S FOG
MARSHALLTOWN   CLOUDY    63  62  97 SE3       29.81R FOG
PELLA *        CLOUDY    64  64 100 E3        29.81S FOG
PERRY *        FOG       61  61 100 CALM      29.81S VSB 1/4
$$

IAZ004>006-015-016-023>025-035-036-020800-
   NORTH CENTRAL IOWA

CITY           SKY/WX    TMP DP  RH WIND       PRES   REMARKS
ALGONA *       CLEAR     59  57  94 S6        29.82R
CLARION *      CLOUDY    59  59 100 CALM      29.82R
ESTHERVILLE    MOCLDY    56  55  97 CALM      29.81F
FORT DODGE *   CLOUDY    57  55  94 CALM      29.82S VSB<1/4
MASON CITY     FOG       50  50 100 CALM      29.83F VSB 1/4
FOREST CITY *  FOG       55  55 100 CALM      29.81S VSB 1/4
IOWA FALLS *   FOG       59  57  94 CALM      29.84R VSB<1/4
$$

IAZ007>011-017>019-026>030-037>042-050>054-066-020800-
   NORTHEAST IOWA

CITY           SKY/WX    TMP DP  RH WIND       PRES   REMARKS
CHARLES CITY * MOCLDY    59  59 100 CALM      29.83S FOG
CLINTON *      CLOUDY    63  57  82 NE7       29.86S
DECORAH *      MOCLDY    61  61 100 CALM      29.83S FOG
MONTICELLO *   CLOUDY    63  63 100 CALM      29.83S
OELWEIN *      CLOUDY    64  61  88 SE3       29.84S
WATERLOO       CLOUDY    63  61  93 E3        29.82S FOG
$$

IAZ064-065-067-068-078-020800-
   EAST CENTRAL IOWA

CITY           SKY/WX    TMP DP  RH WIND       PRES   REMARKS
IOWA CITY      CLOUDY    65  63  93 E5        29.83S
MT. PLEASANT * CLOUDY    64  63  94 CALM      29.82R FOG
MUSCATINE *    CLOUDY    64  63  94 CALM      29.81F
QUAD CITIES    CLOUDY    64  61  90 CALM      29.82R FOG
$$

IAZ062-063-075>077-085>089-095>099-020800-
   SOUTHEAST IOWA

CITY           SKY/WX    TMP DP  RH WIND       PRES   REMARKS
BURLINGTON     RAIN      66  65  96 SE10      29.79F FOG
FAIRFIELD *    CLOUDY    63  63 100 CALM      29.83R
FORT MADISON * RAIN      66  66 100 S13       29.81S
KEOKUK *       CLOUDY    66  64  94 SE13G20   29.79F FOG
OSKALOOSA *    CLOUDY    63  63 100 CALM      29.82R FOG
CENTERVILLE *  FOG       64  64 100 NE5       29.81S VSB 1
OTTUMWA        FOG       63  62  97 E5        29.81R VSB 1/4
WASHINGTON *   CLOUDY    64  64 100 E3        29.82R FOG
$$

ABBREVIATIONS USED IN REMARKS
   TC - TEMPERATURES IN CELSIUS
  WCI - WIND CHILL INDEX
   HX - HEAT INDEX
  VSB - VISIBILITY
$$



USA.gov is the U.S. government's official web portal to all federal, state and local government web resources and services.